Location: Berville
(49.1893°N, 2.0748°E)
Time: 19:25:38
(UTC+00:00)

FENGYUN 1C DEB - Pass Details

Date: 01 March 2024
Orbit: 768 x 960 km, 99.0° (Epoch: 13 April)

Event Time Altitude Azimuth Distance (km) Brightness Sun altitude
Exits shadow 20:09:13 49° 59° (ENE) 1,220 ? -25.6°
Drops below altitude 10° 20:14:44 10° 354° (N) 2,664 ? -26.4°
Sets 20:17:12 0° 349° (N) 3,591 ? -26.8°
